This is the latest recevied weather packets stored in our database for station/object 7L2IWN-13. If no packets are shown the sender has not sent any weather packets the latest 10 day(s).
| Time | Temp. | Humidity | Pressure | Rain* | Wind** | Luminosity | Snow |
|---|---|---|---|---|---|---|---|
| 1777623740 | 15° C | 99% | 991.2 hPa | 0 mm | - | - | - |
| 1777623021 | 15° C | 98% | 991.4 hPa | 0 mm | - | - | - |
| 1777622300 | 15° C | 98% | 991.8 hPa | 0 mm | - | - | - |
| 1777621580 | 15° C | 98% | 991.9 hPa | 0 mm | - | - | - |
| 1777620860 | 15.56° C | 97% | 992.3 hPa | 0 mm | - | - | - |
| 1777620141 | 16.11° C | 95% | 992.5 hPa | 0 mm | - | - | - |
| 1777618701 | 16.67° C | 91% | 993 hPa | 0 mm | - | - | - |
| 1777617981 | 16.67° C | 90% | 993.4 hPa | 0 mm | - | - | - |
| 1777617262 | 17.22° C | 89% | 993.7 hPa | 0 mm | - | - | - |
| 1777616541 | 17.22° C | 90% | 994.1 hPa | 0 mm | - | - | - |
| 1777615820 | 16.67° C | 91% | 994.2 hPa | 0 mm | - | - | - |
| 1777614381 | 15.56° C | 94% | 994.6 hPa | 0 mm | - | - | - |
| 1777612941 | 15° C | 96% | 995.2 hPa | 0 mm | - | - | - |
| 1777612220 | 15.56° C | 96% | 995.9 hPa | 0 mm | - | - | - |
| 1777610781 | 15° C | 96% | 996.5 hPa | 0 mm | - | - | - |
| 1777610062 | 15° C | 95% | 996.9 hPa | 0 mm | - | - | - |
| 1777609341 | 15° C | 95% | 997.2 hPa | 0 mm | - | - | - |
| 1777608620 | 15° C | 95% | 997.6 hPa | 0 mm | - | - | - |
| 1777607900 | 15° C | 99% | 997.9 hPa | 0 mm | - | - | - |
| 1777607180 | 13.89° C | 99% | 997.8 hPa | 0 mm | - | - | - |
| 1777606460 | 14.44° C | 99% | 998.8 hPa | 0.51 mm | - | - | - |
| 1777605740 | 13.33° C | 99% | 999.1 hPa | 1.02 mm | - | - | - |
| 1777605020 | 13.33° C | 99% | 999.8 hPa | 1.02 mm | - | - | - |
| 1777604301 | 12.78° C | 99% | 1000.3 hPa | 1.02 mm | - | - | - |
| 1777603580 | 12.22° C | 99% | 1000.6 hPa | 1.02 mm | - | - | - |
* Rain latest hour (hover to see other rain measurements)
** Current wind speed in m/s (hover to see current wind gust speed)